Time,TemperatureF,DewpointF,PressureIn,WindDirection,WindDirectionDegrees,WindSpeedMPH,WindSpeedGustMPH,Humidity,HourlyPrecipIn,Conditions,Clouds,dailyrainin,SoftwareType,DateUTC
2013-04-30 00:01:00,55.2,53.6,30.03,NNE,16,0.0,5.0,94,0.00,,,0.28,meteohub,2013-04-30 04:01:00,
2013-04-30 00:02:00,55.2,53.2,30.03,NNE,13,0.0,5.0,93,0.00,,,0.28,meteohub,2013-04-30 04:02:00,
2013-04-30 00:07:00,55.4,53.4,30.03,East,98,1.0,5.0,93,0.00,,,0.00,meteohub,2013-04-30 04:07:00,
2013-04-30 00:12:00,55.4,53.4,30.03,ESE,103,1.0,5.0,93,0.00,,,0.00,meteohub,2013-04-30 04:12:00,
2013-04-30 00:17:00,55.2,53.2,30.03,North,9,2.0,6.0,93,0.00,,,0.00,meteohub,2013-04-30 04:17:00,
2013-04-30 00:22:00,55.2,53.2,30.03,East,82,1.0,6.0,93,0.00,,,0.00,meteohub,2013-04-30 04:22:00,
2013-04-30 00:27:00,55.4,53.4,30.03,ENE,68,0.0,7.0,93,0.00,,,0.00,meteohub,2013-04-30 04:27:00,
2013-04-30 00:32:00,55.4,53.4,30.03,ESE,114,0.0,7.0,93,0.00,,,0.00,meteohub,2013-04-30 04:32:00,
2013-04-30 00:37:00,55.4,53.4,30.03,NE,51,3.0,4.0,93,0.00,,,0.00,meteohub,2013-04-30 04:37:00,
2013-04-30 00:42:00,55.4,53.4,30.03,ENE,71,0.0,4.0,93,0.00,,,0.00,meteohub,2013-04-30 04:42:00,
2013-04-30 00:47:00,55.4,53.4,30.03,NNE,32,2.0,4.0,93,0.00,,,0.00,meteohub,2013-04-30 04:47:00,
2013-04-30 00:52:00,55.4,53.4,30.03,WNW,290,0.0,4.0,93,0.00,,,0.00,meteohub,2013-04-30 04:52:00,
2013-04-30 00:57:00,55.4,53.4,30.03,North,0,1.0,4.0,93,0.00,,,0.00,meteohub,2013-04-30 04:57:00,
2013-04-30 01:02:00,55.4,53.4,30.03,NE,56,0.0,4.0,93,0.00,,,0.00,meteohub,2013-04-30 05:02:00,
2013-04-30 01:07:00,55.4,53.4,30.03,NNE,17,2.0,4.0,93,0.00,,,0.00,meteohub,2013-04-30 05:07:00,
2013-04-30 01:12:00,55.4,53.4,30.03,NNE,16,0.0,4.0,93,0.00,,,0.00,meteohub,2013-04-30 05:12:00,
2013-04-30 01:17:00,55.4,53.4,30.03,SSE,148,0.0,4.0,93,0.00,,,0.00,meteohub,2013-04-30 05:17:00,
2013-04-30 01:22:00,55.4,53.4,30.03,NNE,33,6.0,6.0,93,0.00,,,0.00,meteohub,2013-04-30 05:22:00,
2013-04-30 01:27:00,55.2,53.2,30.03,NE,43,0.0,6.0,93,0.00,,,0.00,meteohub,2013-04-30 05:27:00,
2013-04-30 01:32:00,55.4,53.4,30.03,SE,132,0.0,6.0,93,0.00,,,0.00,meteohub,2013-04-30 05:32:00,
2013-04-30 01:37:00,55.6,53.6,30.03,East,90,1.0,6.0,93,0.00,,,0.00,meteohub,2013-04-30 05:37:00,
2013-04-30 01:42:00,55.6,53.6,30.03,ENE,72,2.0,3.0,93,0.00,,,0.00,meteohub,2013-04-30 05:42:00,
2013-04-30 01:47:00,55.6,53.6,30.03,NNE,33,2.0,5.0,93,0.00,,,0.00,meteohub,2013-04-30 05:47:00,
2013-04-30 01:52:00,55.6,53.6,30.03,NE,41,0.0,5.0,93,0.00,,,0.00,meteohub,2013-04-30 05:52:00,
2013-04-30 01:57:00,55.6,53.6,30.03,NNE,30,1.0,5.0,93,0.00,,,0.00,meteohub,2013-04-30 05:57:00,
2013-04-30 02:02:00,55.6,53.6,30.03,NNE,23,0.0,3.0,93,0.00,,,0.00,meteohub,2013-04-30 06:02:00,
2013-04-30 02:07:00,55.6,53.6,30.03,NNW,345,0.0,3.0,93,0.00,,,0.00,meteohub,2013-04-30 06:07:00,
2013-04-30 02:12:00,55.6,53.6,30.03,NNE,17,1.0,3.0,93,0.00,,,0.00,meteohub,2013-04-30 06:12:00,
2013-04-30 02:17:00,55.6,54.0,30.03,NNE,32,1.0,3.0,94,0.00,,,0.00,meteohub,2013-04-30 06:17:00,
2013-04-30 02:22:00,55.6,54.0,30.03,ENE,73,1.0,4.0,94,0.00,,,0.00,meteohub,2013-04-30 06:22:00,
2013-04-30 02:27:00,55.6,54.0,30.02,NE,40,1.0,4.0,94,0.00,,,0.00,meteohub,2013-04-30 06:27:00,
2013-04-30 02:32:00,55.6,54.0,30.02,ESE,122,0.0,4.0,94,0.00,,,0.00,meteohub,2013-04-30 06:32:00,
2013-04-30 02:37:00,55.6,54.0,30.02,NNE,28,0.0,4.0,94,0.00,,,0.00,meteohub,2013-04-30 06:37:00,
2013-04-30 02:42:00,55.6,54.0,30.02,NNE,28,1.0,5.0,94,0.00,,,0.00,meteohub,2013-04-30 06:42:00,
2013-04-30 02:47:00,55.6,54.0,30.02,ENE,71,0.0,5.0,94,0.00,,,0.00,meteohub,2013-04-30 06:47:00,
2013-04-30 02:52:00,55.6,54.0,30.02,ENE,68,3.0,5.0,94,0.00,,,0.00,meteohub,2013-04-30 06:52:00,
2013-04-30 02:58:00,55.6,54.0,30.02,NE,53,2.0,6.0,94,0.00,,,0.00,meteohub,2013-04-30 06:58:00,
2013-04-30 03:03:00,55.6,54.1,30.01,East,95,0.0,6.0,95,0.00,,,0.00,meteohub,2013-04-30 07:03:00,
2013-04-30 03:08:00,55.6,54.1,30.02,ESE,120,1.0,6.0,95,0.00,,,0.00,meteohub,2013-04-30 07:08:00,
2013-04-30 03:13:00,55.6,54.1,30.02,North,11,3.0,4.0,95,0.00,,,0.00,meteohub,2013-04-30 07:13:00,
2013-04-30 03:18:00,55.6,54.1,30.02,NE,45,2.0,4.0,95,0.00,,,0.00,meteohub,2013-04-30 07:18:00,
2013-04-30 03:23:00,55.6,54.1,30.02,NE,54,3.0,4.0,95,0.00,,,0.00,meteohub,2013-04-30 07:23:00,
2013-04-30 03:28:00,55.6,54.1,30.02,ENE,66,1.0,4.0,95,0.00,,,0.00,meteohub,2013-04-30 07:28:00,
2013-04-30 03:33:00,55.6,54.1,30.02,NE,53,2.0,5.0,95,0.01,,,0.01,meteohub,2013-04-30 07:33:00,
2013-04-30 03:38:00,55.6,54.1,30.02,NNE,27,1.0,6.0,95,0.01,,,0.01,meteohub,2013-04-30 07:38:00,
2013-04-30 03:43:00,55.6,54.1,30.02,NNE,18,0.0,6.0,95,0.01,,,0.01,meteohub,2013-04-30 07:43:00,
2013-04-30 03:48:00,55.6,54.1,30.02,NE,41,2.0,6.0,95,0.01,,,0.01,meteohub,2013-04-30 07:48:00,
2013-04-30 03:53:00,55.6,54.1,30.02,ENE,58,2.0,3.0,95,0.01,,,0.01,meteohub,2013-04-30 07:53:00,
2013-04-30 03:58:00,55.6,54.1,30.02,ENE,65,2.0,4.0,95,0.01,,,0.01,meteohub,2013-04-30 07:58:00,
2013-04-30 04:03:00,55.6,54.1,30.02,NE,56,2.0,4.0,95,0.01,,,0.01,meteohub,2013-04-30 08:03:00,
2013-04-30 04:08:00,55.6,54.1,30.03,NE,53,2.0,4.0,95,0.01,,,0.01,meteohub,2013-04-30 08:08:00,
2013-04-30 04:13:00,55.6,54.1,30.03,NE,44,0.0,4.0,95,0.01,,,0.01,meteohub,2013-04-30 08:13:00,
2013-04-30 04:18:00,55.6,54.1,30.03,NE,56,2.0,3.0,95,0.01,,,0.01,meteohub,2013-04-30 08:18:00,
2013-04-30 04:23:00,55.6,54.1,30.03,NNE,28,4.0,4.0,95,0.01,,,0.01,meteohub,2013-04-30 08:23:00,
2013-04-30 04:28:00,55.8,54.3,30.03,North,5,2.0,4.0,95,0.00,,,0.01,meteohub,2013-04-30 08:28:00,
2013-04-30 04:33:00,55.8,54.3,30.03,ENE,59,0.0,4.0,95,0.00,,,0.01,meteohub,2013-04-30 08:33:00,
2013-04-30 04:38:00,55.8,54.3,30.03,ENE,58,0.0,4.0,95,0.00,,,0.01,meteohub,2013-04-30 08:38:00,
2013-04-30 04:43:00,55.8,54.3,30.03,North,11,3.0,4.0,95,0.00,,,0.01,meteohub,2013-04-30 08:43:00,
2013-04-30 04:48:00,55.8,54.3,30.04,North,355,0.0,4.0,95,0.00,,,0.01,meteohub,2013-04-30 08:48:00,
2013-04-30 04:53:00,55.8,54.3,30.04,NNW,345,1.0,4.0,95,0.00,,,0.01,meteohub,2013-04-30 08:53:00,
2013-04-30 04:58:00,55.8,54.3,30.04,North,9,0.0,4.0,95,0.00,,,0.01,meteohub,2013-04-30 08:58:00,
2013-04-30 05:03:00,55.8,54.3,30.04,NE,41,2.0,4.0,95,0.00,,,0.01,meteohub,2013-04-30 09:03:00,
2013-04-30 05:08:00,55.8,54.3,30.04,NE,34,1.0,5.0,95,0.00,,,0.01,meteohub,2013-04-30 09:08:00,
2013-04-30 05:13:00,55.8,54.3,30.04,NE,37,4.0,5.0,95,0.00,,,0.01,meteohub,2013-04-30 09:13:00,
2013-04-30 05:18:00,55.8,54.3,30.04,NE,37,3.0,5.0,95,0.00,,,0.01,meteohub,2013-04-30 09:18:00,
2013-04-30 05:23:00,55.6,54.1,30.04,NE,56,3.0,5.0,95,0.00,,,0.01,meteohub,2013-04-30 09:23:00,
2013-04-30 05:28:00,55.6,54.1,30.04,North,0,0.0,6.0,95,0.00,,,0.01,meteohub,2013-04-30 09:28:00,
2013-04-30 05:33:00,55.6,54.1,30.04,NE,48,2.0,6.0,95,0.00,,,0.01,meteohub,2013-04-30 09:33:00,
2013-04-30 05:38:00,55.8,54.3,30.04,NE,42,1.0,6.0,95,0.00,,,0.01,meteohub,2013-04-30 09:38:00,
2013-04-30 05:43:00,55.8,54.3,30.04,NNE,25,0.0,6.0,95,0.00,,,0.01,meteohub,2013-04-30 09:43:00,
2013-04-30 05:48:00,55.6,54.1,30.04,ENE,68,2.0,6.0,95,0.00,,,0.01,meteohub,2013-04-30 09:48:00,
2013-04-30 05:53:00,55.6,54.1,30.04,North,0,0.0,5.0,95,0.00,,,0.01,meteohub,2013-04-30 09:53:00,
2013-04-30 05:58:00,55.6,54.1,30.05,NE,43,0.0,7.0,95,0.00,,,0.01,meteohub,2013-04-30 09:58:00,
2013-04-30 06:03:00,55.6,54.1,30.05,SE,143,0.0,7.0,95,0.00,,,0.01,meteohub,2013-04-30 10:03:00,
2013-04-30 06:08:00,55.8,54.3,30.05,ENE,68,3.0,7.0,95,0.00,,,0.01,meteohub,2013-04-30 10:08:00,
2013-04-30 06:13:00,55.8,54.3,30.06,East,98,1.0,5.0,95,0.00,,,0.01,meteohub,2013-04-30 10:13:00,
2013-04-30 06:18:00,55.8,54.3,30.06,NNE,30,2.0,5.0,95,0.00,,,0.01,meteohub,2013-04-30 10:18:00,
2013-04-30 06:23:00,55.8,54.3,30.06,NNE,18,1.0,4.0,95,0.00,,,0.01,meteohub,2013-04-30 10:23:00,
2013-04-30 06:28:00,55.8,54.3,30.07,NE,46,0.0,4.0,95,0.00,,,0.01,meteohub,2013-04-30 10:28:00,
2013-04-30 06:33:00,55.8,54.3,30.07,NE,37,3.0,4.0,95,0.00,,,0.01,meteohub,2013-04-30 10:33:00,
2013-04-30 06:38:00,55.8,54.3,30.07,North,11,2.0,4.0,95,0.00,,,0.01,meteohub,2013-04-30 10:38:00,
2013-04-30 06:43:00,55.8,54.3,30.07,ENE,70,0.0,4.0,95,0.00,,,0.01,meteohub,2013-04-30 10:43:00,
2013-04-30 06:48:00,55.8,54.3,30.07,NE,44,3.0,7.0,95,0.01,,,0.02,meteohub,2013-04-30 10:48:00,
2013-04-30 06:53:00,55.9,54.5,30.08,NE,36,0.0,7.0,95,0.01,,,0.02,meteohub,2013-04-30 10:53:00,
2013-04-30 06:58:00,55.9,54.5,30.08,NE,56,1.0,7.0,95,0.01,,,0.02,meteohub,2013-04-30 10:58:00,
2013-04-30 07:03:00,55.9,54.5,30.08,NE,47,0.0,6.0,95,0.01,,,0.02,meteohub,2013-04-30 11:03:00,
2013-04-30 07:08:00,55.9,54.5,30.08,NE,43,2.0,5.0,95,0.01,,,0.02,meteohub,2013-04-30 11:08:00,
2013-04-30 07:13:00,56.1,54.7,30.08,NE,36,0.0,5.0,95,0.01,,,0.02,meteohub,2013-04-30 11:13:00,
2013-04-30 07:18:00,56.1,54.7,30.09,NE,53,0.0,6.0,95,0.01,,,0.02,meteohub,2013-04-30 11:18:00,
2013-04-30 07:23:00,56.1,54.7,30.09,NE,36,1.0,6.0,95,0.01,,,0.02,meteohub,2013-04-30 11:23:00,
2013-04-30 07:28:00,56.1,54.7,30.09,NE,34,3.0,6.0,95,0.01,,,0.02,meteohub,2013-04-30 11:28:00,
2013-04-30 07:34:00,56.1,54.7,30.09,NE,52,2.0,5.0,95,0.01,,,0.02,meteohub,2013-04-30 11:34:00,
2013-04-30 07:39:00,56.3,54.9,30.09,NE,37,6.0,6.0,95,0.01,,,0.02,meteohub,2013-04-30 11:39:00,
2013-04-30 07:44:00,56.3,54.9,30.09,ENE,63,0.0,6.0,95,0.00,,,0.02,meteohub,2013-04-30 11:44:00,
2013-04-30 07:49:00,56.3,54.9,30.09,North,359,0.0,6.0,95,0.00,,,0.02,meteohub,2013-04-30 11:49:00,
2013-04-30 07:54:00,56.3,54.9,30.09,East,99,0.0,6.0,95,0.00,,,0.02,meteohub,2013-04-30 11:54:00,
2013-04-30 07:59:00,56.5,55.0,30.09,NW,314,1.0,5.0,95,0.00,,,0.02,meteohub,2013-04-30 11:59:00,
2013-04-30 08:04:00,56.5,55.0,30.09,North,0,0.0,5.0,95,0.00,,,0.02,meteohub,2013-04-30 12:04:00,
2013-04-30 08:09:00,56.5,55.0,30.09,SSE,147,0.0,5.0,95,0.00,,,0.02,meteohub,2013-04-30 12:09:00,
2013-04-30 08:14:00,56.5,55.0,30.10,NNE,25,3.0,3.0,95,0.00,,,0.02,meteohub,2013-04-30 12:14:00,
2013-04-30 08:19:00,56.7,55.2,30.10,NE,48,4.0,6.0,95,0.00,,,0.02,meteohub,2013-04-30 12:19:00,
2013-04-30 08:24:00,56.7,55.2,30.10,ESE,105,0.0,6.0,95,0.00,,,0.02,meteohub,2013-04-30 12:24:00,
2013-04-30 08:29:00,56.7,55.2,30.10,North,3,1.0,5.0,95,0.00,,,0.02,meteohub,2013-04-30 12:29:00,
2013-04-30 08:34:00,56.7,55.2,30.10,NNE,32,4.0,6.0,95,0.00,,,0.02,meteohub,2013-04-30 12:34:00,
2013-04-30 08:39:00,56.7,55.2,30.11,SSE,157,1.0,8.0,95,0.00,,,0.02,meteohub,2013-04-30 12:39:00,
2013-04-30 08:44:00,56.7,55.2,30.11,NNE,32,1.0,8.0,95,0.00,,,0.02,meteohub,2013-04-30 12:44:00,
2013-04-30 08:49:00,56.7,55.2,30.11,ENE,58,1.0,8.0,95,0.00,,,0.02,meteohub,2013-04-30 12:49:00,
2013-04-30 08:54:00,56.8,55.4,30.11,ESE,111,1.0,8.0,95,0.00,,,0.02,meteohub,2013-04-30 12:54:00,
2013-04-30 08:59:00,56.8,55.4,30.11,NE,44,3.0,6.0,95,0.00,,,0.02,meteohub,2013-04-30 12:59:00,
2013-04-30 09:04:00,56.7,55.2,30.11,North,7,1.0,7.0,95,0.00,,,0.02,meteohub,2013-04-30 13:04:00,
2013-04-30 09:09:00,56.8,55.4,30.11,ENE,71,4.0,8.0,95,0.00,,,0.02,meteohub,2013-04-30 13:09:00,
2013-04-30 09:14:00,56.8,55.4,30.12,ENE,78,1.0,8.0,95,0.00,,,0.02,meteohub,2013-04-30 13:14:00,
2013-04-30 09:19:00,56.8,55.4,30.12,ENE,68,1.0,8.0,95,0.00,,,0.02,meteohub,2013-04-30 13:19:00,
2013-04-30 09:24:00,56.8,55.4,30.12,ENE,60,0.0,5.0,95,0.00,,,0.02,meteohub,2013-04-30 13:24:00,
2013-04-30 09:29:00,57.0,55.6,30.12,SSE,155,0.0,6.0,95,0.00,,,0.02,meteohub,2013-04-30 13:29:00,
2013-04-30 09:35:00,57.0,55.2,30.12,NNE,15,0.0,6.0,94,0.00,,,0.02,meteohub,2013-04-30 13:35:00,
2013-04-30 09:40:00,57.0,55.2,30.12,NW,321,0.0,5.0,94,0.00,,,0.02,meteohub,2013-04-30 13:40:00,
2013-04-30 09:45:00,57.0,55.2,30.12,ENE,76,1.0,5.0,94,0.00,,,0.02,meteohub,2013-04-30 13:45:00,
2013-04-30 09:50:00,57.0,55.2,30.12,ENE,64,1.0,7.0,94,0.00,,,0.02,meteohub,2013-04-30 13:50:00,
2013-04-30 09:55:00,57.0,55.2,30.12,West,281,0.0,7.0,94,0.00,,,0.02,meteohub,2013-04-30 13:55:00,
2013-04-30 10:00:00,57.0,55.2,30.12,NNE,29,1.0,8.0,94,0.01,,,0.03,meteohub,2013-04-30 14:00:00,
2013-04-30 10:05:00,57.2,55.4,30.12,NNW,334,1.0,8.0,94,0.01,,,0.03,meteohub,2013-04-30 14:05:00,
2013-04-30 10:10:00,57.0,55.0,30.12,SE,139,0.0,6.0,93,0.01,,,0.03,meteohub,2013-04-30 14:10:00,
2013-04-30 10:15:00,57.0,55.2,30.12,SSW,197,1.0,10.0,94,0.01,,,0.03,meteohub,2013-04-30 14:15:00,
2013-04-30 10:20:00,57.0,55.0,30.12,NE,35,2.0,10.0,93,0.01,,,0.03,meteohub,2013-04-30 14:20:00,
2013-04-30 10:25:00,57.2,55.2,30.12,NE,37,4.0,10.0,93,0.01,,,0.03,meteohub,2013-04-30 14:25:00,
2013-04-30 10:30:00,57.0,55.0,30.12,SSE,159,0.0,7.0,93,0.01,,,0.03,meteohub,2013-04-30 14:30:00,
2013-04-30 10:35:00,57.0,54.7,30.13,SSW,200,0.0,8.0,92,0.01,,,0.03,meteohub,2013-04-30 14:35:00,
2013-04-30 10:40:00,57.2,54.9,30.13,NNE,29,3.0,8.0,92,0.01,,,0.03,meteohub,2013-04-30 14:40:00,
2013-04-30 10:45:00,57.0,54.7,30.13,North,356,1.0,8.0,92,0.01,,,0.03,meteohub,2013-04-30 14:45:00,
2013-04-30 10:50:00,57.0,54.7,30.13,NE,48,5.0,8.0,92,0.01,,,0.03,meteohub,2013-04-30 14:50:00,
2013-04-30 10:55:00,57.0,54.7,30.13,North,356,1.0,11.0,92,0.01,,,0.03,meteohub,2013-04-30 14:55:00,
2013-04-30 11:00:00,57.0,54.7,30.13,East,84,2.0,11.0,92,0.00,,,0.03,meteohub,2013-04-30 15:00:00,
2013-04-30 11:05:00,57.4,55.0,30.12,ESE,105,1.0,11.0,92,0.00,,,0.03,meteohub,2013-04-30 15:05:00,
2013-04-30 11:10:00,57.6,55.2,30.12,NNE,15,2.0,6.0,92,0.00,,,0.03,meteohub,2013-04-30 15:10:00,
2013-04-30 11:15:00,57.7,55.4,30.13,ESE,111,1.0,6.0,92,0.00,,,0.03,meteohub,2013-04-30 15:15:00,
2013-04-30 11:20:00,57.7,55.2,30.13,ENE,58,1.0,8.0,91,0.00,,,0.03,meteohub,2013-04-30 15:20:00,
2013-04-30 11:25:00,57.7,55.4,30.13,ENE,71,1.0,8.0,92,0.00,,,0.03,meteohub,2013-04-30 15:25:00,
2013-04-30 11:30:00,57.9,55.6,30.13,NE,56,0.0,8.0,92,0.00,,,0.03,meteohub,2013-04-30 15:30:00,
2013-04-30 11:35:00,58.1,55.4,30.13,NNE,23,4.0,7.0,91,0.00,,,0.03,meteohub,2013-04-30 15:35:00,
2013-04-30 11:40:00,58.3,55.6,30.13,NNE,23,2.0,6.0,91,0.00,,,0.03,meteohub,2013-04-30 15:40:00,
2013-04-30 11:45:00,58.3,55.9,30.13,East,98,0.0,6.0,92,0.00,,,0.03,meteohub,2013-04-30 15:45:00,
2013-04-30 11:50:00,58.3,55.6,30.13,SE,134,0.0,6.0,91,0.00,,,0.03,meteohub,2013-04-30 15:50:00,
2013-04-30 11:55:00,58.3,55.6,30.13,South,184,1.0,9.0,91,0.00,,,0.03,meteohub,2013-04-30 15:55:00,
2013-04-30 12:00:00,58.1,55.4,30.13,NNE,25,3.0,9.0,91,0.00,,,0.03,meteohub,2013-04-30 16:00:00,
2013-04-30 12:05:00,57.7,55.4,30.13,ENE,77,1.0,9.0,92,0.00,,,0.03,meteohub,2013-04-30 16:05:00,
2013-04-30 12:10:00,57.9,55.6,30.13,SE,135,0.0,6.0,92,0.00,,,0.04,meteohub,2013-04-30 16:10:00,
2013-04-30 12:15:00,57.9,55.6,30.13,NNE,18,4.0,6.0,92,0.01,,,0.04,meteohub,2013-04-30 16:15:00,
2013-04-30 12:20:00,57.9,55.6,30.13,East,79,0.0,6.0,92,0.01,,,0.04,meteohub,2013-04-30 16:20:00,
2013-04-30 12:25:00,57.7,55.4,30.13,South,191,1.0,4.0,92,0.01,,,0.04,meteohub,2013-04-30 16:25:00,
2013-04-30 12:30:00,58.1,55.8,30.13,SE,145,0.0,6.0,92,0.01,,,0.04,meteohub,2013-04-30 16:30:00,
2013-04-30 12:35:00,58.3,55.9,30.13,SSW,200,0.0,6.0,92,0.01,,,0.04,meteohub,2013-04-30 16:35:00,
2013-04-30 12:40:00,58.3,55.9,30.13,SSE,165,0.0,9.0,92,0.01,,,0.04,meteohub,2013-04-30 16:40:00,
2013-04-30 12:45:00,58.6,56.3,30.13,ESE,116,1.0,9.0,92,0.01,,,0.05,meteohub,2013-04-30 16:45:00,
2013-04-30 12:50:00,58.6,55.9,30.13,ENE,67,1.0,9.0,91,0.02,,,0.05,meteohub,2013-04-30 16:50:00,
2013-04-30 12:55:00,58.8,56.1,30.13,SE,133,0.0,8.0,91,0.02,,,0.05,meteohub,2013-04-30 16:55:00,
2013-04-30 13:00:00,59.2,56.5,30.13,SSE,156,2.0,7.0,91,0.02,,,0.05,meteohub,2013-04-30 17:00:00,
2013-04-30 13:05:00,59.4,57.0,30.13,NW,319,0.0,7.0,92,0.02,,,0.05,meteohub,2013-04-30 17:05:00,
2013-04-30 13:10:00,59.2,56.5,30.13,NNE,30,3.0,4.0,91,0.01,,,0.05,meteohub,2013-04-30 17:10:00,
2013-04-30 13:15:00,59.0,56.3,30.12,ENE,72,0.0,7.0,91,0.01,,,0.05,meteohub,2013-04-30 17:15:00,
2013-04-30 13:20:00,58.8,56.1,30.13,SE,127,1.0,7.0,91,0.01,,,0.05,meteohub,2013-04-30 17:20:00,
2013-04-30 13:25:00,58.8,56.5,30.13,East,95,0.0,7.0,92,0.01,,,0.05,meteohub,2013-04-30 17:25:00,
2013-04-30 13:30:00,58.6,55.9,30.13,ENE,74,1.0,5.0,91,0.01,,,0.05,meteohub,2013-04-30 17:30:00,
2013-04-30 13:35:00,58.8,56.5,30.13,WNW,291,0.0,5.0,92,0.01,,,0.05,meteohub,2013-04-30 17:35:00,
2013-04-30 13:40:00,59.4,57.0,30.13,NNE,28,1.0,6.0,92,0.01,,,0.05,meteohub,2013-04-30 17:40:00,
2013-04-30 13:45:00,59.7,57.0,30.13,ESE,114,0.0,6.0,91,0.00,,,0.05,meteohub,2013-04-30 17:45:00,
2013-04-30 13:50:00,59.5,56.7,30.13,NNE,29,2.0,3.0,90,0.00,,,0.05,meteohub,2013-04-30 17:50:00,
2013-04-30 13:55:00,59.2,56.3,30.13,NW,317,0.0,6.0,90,0.00,,,0.05,meteohub,2013-04-30 17:55:00,
2013-04-30 14:00:00,59.2,56.3,30.13,North,350,2.0,7.0,90,0.00,,,0.05,meteohub,2013-04-30 18:00:00,
2013-04-30 14:05:00,59.2,56.5,30.13,ESE,111,0.0,10.0,91,0.00,,,0.06,meteohub,2013-04-30 18:05:00,
2013-04-30 14:10:00,59.4,56.7,30.13,North,354,2.0,10.0,91,0.01,,,0.06,meteohub,2013-04-30 18:10:00,
2013-04-30 14:15:00,59.5,56.7,30.13,SE,135,1.0,6.0,90,0.01,,,0.06,meteohub,2013-04-30 18:15:00,
2013-04-30 14:20:00,59.5,56.3,30.13,NNE,32,2.0,7.0,89,0.01,,,0.06,meteohub,2013-04-30 18:20:00,
2013-04-30 14:25:00,59.5,56.3,30.13,NNW,342,3.0,7.0,89,0.01,,,0.06,meteohub,2013-04-30 18:25:00,
2013-04-30 14:30:00,59.7,56.5,30.13,NE,41,2.0,6.0,89,0.01,,,0.06,meteohub,2013-04-30 18:30:00,
2013-04-30 14:35:00,60.1,57.2,30.13,ENE,75,1.0,8.0,90,0.01,,,0.06,meteohub,2013-04-30 18:35:00,
2013-04-30 14:40:00,60.3,57.0,30.14,North,5,7.0,8.0,89,0.01,,,0.06,meteohub,2013-04-30 18:40:00,
2013-04-30 14:45:00,60.1,56.8,30.14,East,98,3.0,8.0,89,0.01,,,0.06,meteohub,2013-04-30 18:45:00,
2013-04-30 14:50:00,60.1,56.5,30.14,South,172,1.0,11.0,88,0.01,,,0.06,meteohub,2013-04-30 18:50:00,
2013-04-30 14:55:00,60.1,56.8,30.14,NE,54,2.0,11.0,89,0.01,,,0.06,meteohub,2013-04-30 18:55:00,
2013-04-30 15:00:00,60.1,56.8,30.14,NE,35,3.0,11.0,89,0.01,,,0.06,meteohub,2013-04-30 19:00:00,
2013-04-30 15:05:00,60.1,57.2,30.14,NNE,16,2.0,10.0,90,0.00,,,0.06,meteohub,2013-04-30 19:05:00,
2013-04-30 15:10:00,60.3,57.6,30.14,SSE,162,2.0,6.0,91,0.00,,,0.06,meteohub,2013-04-30 19:10:00,
2013-04-30 15:15:00,60.3,57.4,30.14,ESE,121,1.0,6.0,90,0.00,,,0.06,meteohub,2013-04-30 19:15:00,
2013-04-30 15:20:00,60.3,57.0,30.14,North,3,3.0,7.0,89,0.00,,,0.06,meteohub,2013-04-30 19:20:00,
2013-04-30 15:25:00,60.3,57.4,30.14,SE,130,0.0,7.0,90,0.00,,,0.06,meteohub,2013-04-30 19:25:00,
2013-04-30 15:30:00,60.3,57.4,30.14,NE,56,1.0,6.0,90,0.00,,,0.06,meteohub,2013-04-30 19:30:00,
2013-04-30 15:35:00,60.6,57.4,30.14,NE,42,1.0,6.0,89,0.00,,,0.06,meteohub,2013-04-30 19:35:00,
2013-04-30 15:40:00,60.6,57.0,30.14,West,263,0.0,6.0,88,0.00,,,0.06,meteohub,2013-04-30 19:40:00,
2013-04-30 15:45:00,60.6,57.0,30.14,NNE,32,2.0,6.0,88,0.00,,,0.06,meteohub,2013-04-30 19:45:00,
2013-04-30 15:50:00,60.6,57.0,30.15,NNE,32,0.0,6.0,88,0.00,,,0.06,meteohub,2013-04-30 19:50:00,
2013-04-30 15:55:00,60.4,56.8,30.15,NNE,29,3.0,5.0,88,0.00,,,0.06,meteohub,2013-04-30 19:55:00,
2013-04-30 16:00:00,60.3,56.3,30.15,NNE,25,1.0,5.0,87,0.00,,,0.06,meteohub,2013-04-30 20:00:00,
2013-04-30 16:05:00,60.3,56.3,30.15,SW,227,1.0,5.0,87,0.00,,,0.06,meteohub,2013-04-30 20:05:00,
2013-04-30 16:10:00,60.4,56.5,30.15,ESE,120,1.0,6.0,87,0.00,,,0.06,meteohub,2013-04-30 20:10:00,
2013-04-30 16:15:00,60.3,56.3,30.15,SSE,150,0.0,6.0,87,0.00,,,0.06,meteohub,2013-04-30 20:15:00,
2013-04-30 16:20:00,59.9,55.9,30.15,NNE,28,2.0,7.0,87,0.00,,,0.06,meteohub,2013-04-30 20:20:00,
2013-04-30 16:25:00,59.5,56.3,30.16,North,10,3.0,7.0,89,0.00,,,0.06,meteohub,2013-04-30 20:25:00,
2013-04-30 16:30:00,58.8,55.9,30.16,NE,47,2.0,7.0,90,0.00,,,0.07,meteohub,2013-04-30 20:30:00,
2013-04-30 16:35:00,58.6,55.9,30.16,West,281,0.0,11.0,91,0.01,,,0.07,meteohub,2013-04-30 20:35:00,
2013-04-30 16:40:00,58.6,55.9,30.16,SSW,205,3.0,11.0,91,0.01,,,0.07,meteohub,2013-04-30 20:40:00,
2013-04-30 16:45:00,58.5,55.8,30.16,ENE,65,7.0,11.0,91,0.01,,,0.07,meteohub,2013-04-30 20:45:00,
2013-04-30 16:50:00,58.5,55.8,30.16,NE,56,2.0,6.0,91,0.01,,,0.07,meteohub,2013-04-30 20:50:00,
2013-04-30 16:55:00,58.5,55.8,30.16,NE,56,4.0,7.0,91,0.01,,,0.07,meteohub,2013-04-30 20:55:00,
2013-04-30 17:00:00,58.3,55.4,30.16,NE,56,3.0,7.0,90,0.01,,,0.07,meteohub,2013-04-30 21:00:00,
2013-04-30 17:05:00,58.5,55.8,30.16,NW,307,1.0,8.0,91,0.01,,,0.07,meteohub,2013-04-30 21:05:00,
2013-04-30 17:10:00,58.5,55.6,30.16,NE,35,3.0,8.0,90,0.01,,,0.07,meteohub,2013-04-30 21:10:00,
2013-04-30 17:15:00,58.6,55.8,30.16,SSE,156,0.0,8.0,90,0.01,,,0.07,meteohub,2013-04-30 21:15:00,
2013-04-30 17:20:00,58.8,55.6,30.16,ESE,121,2.0,8.0,89,0.01,,,0.07,meteohub,2013-04-30 21:20:00,
2013-04-30 17:25:00,58.8,55.6,30.16,NE,46,2.0,8.0,89,0.01,,,0.07,meteohub,2013-04-30 21:25:00,
2013-04-30 17:30:00,58.8,55.6,30.16,NW,319,2.0,7.0,89,0.01,,,0.07,meteohub,2013-04-30 21:30:00,
2013-04-30 17:35:00,58.6,55.4,30.16,NNE,30,4.0,7.0,89,0.00,,,0.07,meteohub,2013-04-30 21:35:00,
2013-04-30 17:40:00,58.5,55.2,30.16,NNW,344,1.0,7.0,89,0.00,,,0.07,meteohub,2013-04-30 21:40:00,
2013-04-30 17:45:00,58.3,55.4,30.16,NE,40,5.0,7.0,90,0.00,,,0.07,meteohub,2013-04-30 21:45:00,
2013-04-30 17:50:00,58.3,55.4,30.16,NE,56,0.0,7.0,90,0.01,,,0.08,meteohub,2013-04-30 21:50:00,
2013-04-30 17:55:00,58.1,55.2,30.16,NE,35,2.0,6.0,90,0.01,,,0.08,meteohub,2013-04-30 21:55:00,
2013-04-30 18:00:00,57.9,54.7,30.17,ESE,111,0.0,7.0,89,0.01,,,0.08,meteohub,2013-04-30 22:00:00,
2013-04-30 18:05:00,57.9,54.3,30.17,NNE,25,5.0,7.0,88,0.01,,,0.08,meteohub,2013-04-30 22:05:00,
2013-04-30 18:10:00,57.9,54.1,30.17,SSE,148,1.0,7.0,87,0.01,,,0.08,meteohub,2013-04-30 22:10:00,
2013-04-30 18:15:00,58.1,54.3,30.17,SE,132,1.0,6.0,87,0.01,,,0.08,meteohub,2013-04-30 22:15:00,
2013-04-30 18:20:00,58.3,54.5,30.17,WNW,293,1.0,7.0,87,0.01,,,0.08,meteohub,2013-04-30 22:20:00,
2013-04-30 18:25:00,58.5,54.7,30.17,East,95,0.0,5.0,87,0.01,,,0.08,meteohub,2013-04-30 22:25:00,
2013-04-30 18:30:00,58.5,54.7,30.17,ESE,104,0.0,5.0,87,0.01,,,0.08,meteohub,2013-04-30 22:30:00,
2013-04-30 18:35:00,58.5,54.3,30.17,South,184,0.0,4.0,86,0.01,,,0.08,meteohub,2013-04-30 22:35:00,
2013-04-30 18:40:00,58.6,54.5,30.17,East,86,0.0,4.0,86,0.01,,,0.08,meteohub,2013-04-30 22:40:00,
2013-04-30 18:45:00,58.5,54.0,30.17,NE,51,0.0,4.0,85,0.00,,,0.08,meteohub,2013-04-30 22:45:00,
2013-04-30 18:50:00,58.5,54.0,30.17,East,80,2.0,4.0,85,0.00,,,0.08,meteohub,2013-04-30 22:50:00,
2013-04-30 18:55:00,58.5,54.0,30.17,North,353,0.0,4.0,85,0.00,,,0.08,meteohub,2013-04-30 22:55:00,
2013-04-30 19:00:00,58.3,53.4,30.17,SE,126,1.0,4.0,84,0.00,,,0.08,meteohub,2013-04-30 23:00:00,
2013-04-30 19:05:00,58.3,53.8,30.17,SE,124,0.0,5.0,85,0.00,,,0.08,meteohub,2013-04-30 23:05:00,
2013-04-30 19:10:00,58.5,54.0,30.18,West,280,0.0,5.0,85,0.00,,,0.08,meteohub,2013-04-30 23:10:00,
2013-04-30 19:15:00,58.5,54.0,30.18,NNW,347,1.0,4.0,85,0.00,,,0.08,meteohub,2013-04-30 23:15:00,
2013-04-30 19:20:00,58.3,53.8,30.18,NE,34,1.0,4.0,85,0.00,,,0.08,meteohub,2013-04-30 23:20:00,
2013-04-30 19:25:00,58.3,53.8,30.18,SE,141,1.0,3.0,85,0.00,,,0.08,meteohub,2013-04-30 23:25:00,
2013-04-30 19:30:00,58.3,54.1,30.18,NE,54,0.0,3.0,86,0.00,,,0.08,meteohub,2013-04-30 23:30:00,
2013-04-30 19:35:00,58.3,54.1,30.18,WSW,257,0.0,3.0,86,0.00,,,0.08,meteohub,2013-04-30 23:35:00,
2013-04-30 19:40:00,58.5,54.0,30.18,SSE,159,0.0,3.0,85,0.00,,,0.08,meteohub,2013-04-30 23:40:00,
2013-04-30 19:45:00,58.5,54.0,30.18,SE,134,0.0,1.0,85,0.00,,,0.08,meteohub,2013-04-30 23:45:00,
2013-04-30 19:50:00,58.5,54.0,30.17,SE,134,0.0,1.0,85,0.00,,,0.08,meteohub,2013-04-30 23:50:00,
2013-04-30 19:56:00,58.3,53.8,30.18,WNW,297,0.0,1.0,85,0.00,,,0.08,meteohub,2013-04-30 23:56:00,
2013-04-30 20:01:00,57.9,53.8,30.18,SE,135,0.0,2.0,86,0.00,,,0.08,meteohub,2013-05-01 00:01:00,
2013-04-30 20:06:00,57.9,53.8,30.18,ENE,72,0.0,2.0,86,0.00,,,0.08,meteohub,2013-05-01 00:06:00,
2013-04-30 20:11:00,57.7,53.6,30.18,ENE,68,1.0,2.0,86,0.00,,,0.08,meteohub,2013-05-01 00:11:00,
2013-04-30 20:16:00,57.6,53.4,30.18,ENE,72,0.0,2.0,86,0.00,,,0.08,meteohub,2013-05-01 00:16:00,
2013-04-30 20:21:00,57.4,53.6,30.18,ESE,118,0.0,2.0,87,0.00,,,0.08,meteohub,2013-05-01 00:21:00,
2013-04-30 20:26:00,57.6,53.8,30.18,ESE,118,0.0,2.0,87,0.00,,,0.08,meteohub,2013-05-01 00:26:00,
2013-04-30 20:31:00,57.6,53.4,30.18,SE,138,0.0,4.0,86,0.00,,,0.08,meteohub,2013-05-01 00:31:00,
2013-04-30 20:36:00,57.4,53.2,30.18,NNW,333,1.0,4.0,86,0.00,,,0.08,meteohub,2013-05-01 00:36:00,
2013-04-30 20:41:00,57.2,52.3,30.19,ESE,104,1.0,4.0,84,0.00,,,0.08,meteohub,2013-05-01 00:41:00,
2013-04-30 20:46:00,57.2,51.8,30.19,North,9,3.0,4.0,82,0.00,,,0.08,meteohub,2013-05-01 00:46:00,
2013-04-30 20:51:00,57.6,47.5,30.19,SSW,210,2.0,11.0,69,0.00,,,0.08,meteohub,2013-05-01 00:51:00,
2013-04-30 20:56:00,57.9,45.3,30.19,North,355,6.0,11.0,63,0.00,,,0.08,meteohub,2013-05-01 00:56:00,
2013-04-30 21:01:00,58.3,44.4,30.19,NE,35,3.0,11.0,60,0.00,,,0.08,meteohub,2013-05-01 01:01:00,
2013-04-30 21:06:00,58.5,43.7,30.19,NNE,30,1.0,8.0,58,0.00,,,0.08,meteohub,2013-05-01 01:06:00,
2013-04-30 21:11:00,58.5,44.2,30.19,SE,139,0.0,8.0,59,0.00,,,0.08,meteohub,2013-05-01 01:11:00,
2013-04-30 21:16:00,58.5,44.6,30.19,NE,42,1.0,7.0,60,0.00,,,0.08,meteohub,2013-05-01 01:16:00,
2013-04-30 21:21:00,58.3,45.0,30.19,North,8,0.0,6.0,61,0.00,,,0.08,meteohub,2013-05-01 01:21:00,
2013-04-30 21:26:00,58.3,46.6,30.20,NNE,29,0.0,6.0,65,0.00,,,0.08,meteohub,2013-05-01 01:26:00,
2013-04-30 21:31:00,58.1,46.4,30.20,NNE,25,0.0,4.0,65,0.00,,,0.08,meteohub,2013-05-01 01:31:00,
2013-04-30 21:36:00,57.9,46.6,30.20,ENE,61,0.0,4.0,66,0.00,,,0.08,meteohub,2013-05-01 01:36:00,
2013-04-30 21:41:00,57.9,46.6,30.20,ESE,113,0.0,4.0,66,0.00,,,0.08,meteohub,2013-05-01 01:41:00,
2013-04-30 21:46:00,57.9,46.9,30.20,NE,44,0.0,3.0,67,0.00,,,0.08,meteohub,2013-05-01 01:46:00,
2013-04-30 21:51:00,57.9,46.9,30.20,NE,46,0.0,3.0,67,0.00,,,0.08,meteohub,2013-05-01 01:51:00,
2013-04-30 21:56:00,57.9,47.5,30.20,NE,47,0.0,2.0,68,0.00,,,0.08,meteohub,2013-05-01 01:56:00,
2013-04-30 22:01:00,58.1,47.7,30.20,NE,41,0.0,2.0,68,0.00,,,0.08,meteohub,2013-05-01 02:01:00,
2013-04-30 22:06:00,57.9,46.9,30.20,ESE,115,0.0,2.0,67,0.00,,,0.08,meteohub,2013-05-01 02:06:00,
2013-04-30 22:11:00,57.9,46.6,30.20,NE,47,0.0,4.0,66,0.00,,,0.08,meteohub,2013-05-01 02:11:00,
2013-04-30 22:16:00,57.9,47.5,30.20,East,91,0.0,4.0,68,0.00,,,0.08,meteohub,2013-05-01 02:16:00,
2013-04-30 22:21:00,57.7,46.4,30.20,WNW,297,0.0,4.0,66,0.00,,,0.08,meteohub,2013-05-01 02:21:00,
2013-04-30 22:26:00,57.7,47.3,30.21,WNW,297,0.0,3.0,68,0.00,,,0.08,meteohub,2013-05-01 02:26:00,
2013-04-30 22:31:00,57.7,47.3,30.21,North,1,0.0,0.0,68,0.00,,,0.08,meteohub,2013-05-01 02:31:00,
2013-04-30 22:36:00,57.6,47.1,30.21,NNE,18,0.0,0.0,68,0.00,,,0.08,meteohub,2013-05-01 02:36:00,
2013-04-30 22:41:00,57.7,47.7,30.21,NE,56,0.0,0.0,69,0.00,,,0.08,meteohub,2013-05-01 02:41:00,
2013-04-30 22:46:00,57.6,47.8,30.21,NE,37,0.0,2.0,70,0.00,,,0.08,meteohub,2013-05-01 02:46:00,
2013-04-30 22:51:00,57.6,48.2,30.21,NE,41,0.0,2.0,71,0.00,,,0.08,meteohub,2013-05-01 02:51:00,
2013-04-30 22:56:00,57.6,48.6,30.21,NE,42,0.0,2.0,72,0.00,,,0.08,meteohub,2013-05-01 02:56:00,
2013-04-30 23:01:00,57.4,48.7,30.21,NE,36,0.0,3.0,73,0.00,,,0.08,meteohub,2013-05-01 03:01:00,
2013-04-30 23:06:00,57.2,48.2,30.21,NE,51,0.0,3.0,72,0.00,,,0.08,meteohub,2013-05-01 03:06:00,
2013-04-30 23:11:00,57.0,48.0,30.21,NE,51,3.0,3.0,72,0.00,,,0.08,meteohub,2013-05-01 03:11:00,
2013-04-30 23:16:00,56.8,47.8,30.21,NNE,25,0.0,5.0,72,0.00,,,0.08,meteohub,2013-05-01 03:16:00,
2013-04-30 23:21:00,56.8,48.2,30.21,NE,41,1.0,5.0,73,0.00,,,0.08,meteohub,2013-05-01 03:21:00,
2013-04-30 23:26:00,56.8,48.2,30.21,North,11,1.0,6.0,73,0.00,,,0.08,meteohub,2013-05-01 03:26:00,
2013-04-30 23:31:00,56.8,48.2,30.21,NNE,25,1.0,6.0,73,0.00,,,0.08,meteohub,2013-05-01 03:31:00,
2013-04-30 23:36:00,56.7,48.4,30.21,NE,34,2.0,6.0,74,0.00,,,0.08,meteohub,2013-05-01 03:36:00,
2013-04-30 23:41:00,56.7,48.4,30.21,North,359,1.0,5.0,74,0.00,,,0.08,meteohub,2013-05-01 03:41:00,
2013-04-30 23:46:00,56.7,48.4,30.21,NNE,32,1.0,5.0,74,0.00,,,0.08,meteohub,2013-05-01 03:46:00,
2013-04-30 23:51:00,56.5,48.4,30.21,North,358,0.0,5.0,74,0.00,,,0.08,meteohub,2013-05-01 03:51:00,
2013-04-30 23:56:00,56.1,48.4,30.21,NNW,331,1.0,5.0,75,0.00,,,0.08,meteohub,2013-05-01 03:56:00,